Location: Lombard
(41.8800°N, 88.0080°W)
Time: 12:33:30
(UTC-06:00)

Tiros 1 despin weight - Visible Passes

Search period start: 07 February 2023 00:00
Search period end: 17 February 2023 00:00
Orbit: 589 x 636 km, 48.2° (Epoch: 06 February)

Date Brightness Start Highest point End Pass type
(mag) Time Alt. Az. Time Alt. Az. Time Alt. Az.
07 Feb ? 18:18:35 10° WNW 18:22:57 45° NNE 18:25:34 21° ENE visible
07 Feb ? 20:00:06 10° WNW 20:02:31 30° WNW 20:02:31 30° WNW visible
08 Feb ? 18:33:20 10° WNW 18:37:51 60° NNE 18:39:57 29° E visible
08 Feb ? 20:15:01 10° WNW 20:16:55 22° W 20:16:55 22° W visible
09 Feb ? 18:48:04 10° WNW 18:52:38 90° ENE 18:54:26 36° ESE visible
09 Feb ? 20:30:19 10° W 20:31:24 14° W 20:31:24 14° W visible
10 Feb ? 19:02:51 10° WNW 19:07:17 54° SW 19:09:02 32° SSE visible
11 Feb ? 19:17:50 10° WNW 19:21:49 30° SW 19:23:48 21° S visible
12 Feb ? 17:50:46 10° WNW 17:55:20 79° SSW 17:59:49 10° SE visible
12 Feb ? 19:33:20 10° W 19:36:12 17° SW 19:38:45 11° S visible
13 Feb ? 18:05:34 10° WNW 18:09:56 46° SW 18:14:13 10° SE visible
14 Feb ? 18:20:38 10° W 18:24:24 26° SW 18:28:06 10° SSE visible
15 Feb ? 18:36:25 10° W 18:38:44 14° SW 18:41:02 10° SSW visible
